Year,Month,Day,Hour,Minute,Value (Times are PST for temperature in C)
2016,11,16,00,00,6.70
2016,11,16,00,01,6.70
2016,11,16,00,02,6.70
2016,11,16,00,03,6.70
2016,11,16,00,04,6.70
2016,11,16,00,05,6.80
2016,11,16,00,06,6.80
2016,11,16,00,07,6.80
2016,11,16,00,08,6.80
2016,11,16,00,09,6.80
2016,11,16,00,10,6.80
2016,11,16,00,11,6.80
2016,11,16,00,12,6.80
2016,11,16,00,13,6.80
2016,11,16,00,14,6.70
2016,11,16,00,15,6.70
2016,11,16,00,16,6.70
2016,11,16,00,17,6.70
2016,11,16,00,18,6.60
2016,11,16,00,19,6.60
2016,11,16,00,20,6.60
2016,11,16,00,21,6.60
2016,11,16,00,22,6.60
2016,11,16,00,23,6.60
2016,11,16,00,24,6.60
2016,11,16,00,25,6.60
2016,11,16,00,26,6.60
2016,11,16,00,27,6.60
2016,11,16,00,28,6.60
2016,11,16,00,29,6.60
2016,11,16,00,30,6.60
2016,11,16,00,31,6.60
2016,11,16,00,32,6.60
2016,11,16,00,33,6.60
2016,11,16,00,34,6.60
2016,11,16,00,35,6.60
2016,11,16,00,36,6.60
2016,11,16,00,37,6.60
2016,11,16,00,38,6.60
2016,11,16,00,39,6.60
2016,11,16,00,40,6.50
2016,11,16,00,41,6.40
2016,11,16,00,42,6.40
2016,11,16,00,43,6.40
2016,11,16,00,44,6.40
2016,11,16,00,45,6.40
2016,11,16,00,46,6.40
2016,11,16,00,47,6.40
2016,11,16,00,48,6.40
2016,11,16,00,49,6.40
2016,11,16,00,50,6.40
2016,11,16,00,51,6.40
2016,11,16,00,52,6.40
2016,11,16,00,53,6.40
2016,11,16,00,54,6.50
2016,11,16,00,55,6.60
2016,11,16,00,56,6.60
2016,11,16,00,57,6.60
2016,11,16,00,58,6.60
2016,11,16,00,59,6.60
2016,11,16,01,00,6.60
2016,11,16,01,01,6.60
2016,11,16,01,02,6.70
2016,11,16,01,03,6.70
2016,11,16,01,04,6.70
2016,11,16,01,05,6.70
2016,11,16,01,06,6.70
2016,11,16,01,07,6.80
2016,11,16,01,08,6.80
2016,11,16,01,09,6.80
2016,11,16,01,10,6.80
2016,11,16,01,11,6.80
2016,11,16,01,12,6.80
2016,11,16,01,13,6.80
2016,11,16,01,14,6.80
2016,11,16,01,15,6.80
2016,11,16,01,16,6.80
2016,11,16,01,17,6.80
2016,11,16,01,18,6.80
2016,11,16,01,19,6.80
2016,11,16,01,20,6.80
2016,11,16,01,21,6.80
2016,11,16,01,22,6.80
2016,11,16,01,23,6.80
2016,11,16,01,24,6.70
2016,11,16,01,25,6.70
2016,11,16,01,26,6.70
2016,11,16,01,27,6.70
2016,11,16,01,28,6.70
2016,11,16,01,29,6.70
2016,11,16,01,30,6.70
2016,11,16,01,31,6.70
2016,11,16,01,32,6.70
2016,11,16,01,33,6.70
2016,11,16,01,34,6.70
2016,11,16,01,35,6.70
2016,11,16,01,36,6.70
2016,11,16,01,37,6.70
2016,11,16,01,38,6.70
2016,11,16,01,39,6.70
2016,11,16,01,40,6.70
2016,11,16,01,41,6.70
2016,11,16,01,42,6.70
2016,11,16,01,43,6.70
2016,11,16,01,44,6.70
2016,11,16,01,45,6.70
2016,11,16,01,46,6.70
2016,11,16,01,47,6.70
2016,11,16,01,48,6.70
2016,11,16,01,49,6.60
2016,11,16,01,50,6.60
2016,11,16,01,51,6.60
2016,11,16,01,52,6.60
2016,11,16,01,53,6.60
2016,11,16,01,54,6.60
2016,11,16,01,55,6.60
2016,11,16,01,56,6.50
2016,11,16,01,57,6.40
2016,11,16,01,58,6.40
2016,11,16,01,59,6.40
2016,11,16,02,00,6.40
2016,11,16,02,01,6.30
2016,11,16,02,02,6.30
2016,11,16,02,03,6.20
2016,11,16,02,04,6.20
2016,11,16,02,05,6.20
2016,11,16,02,06,6.10
2016,11,16,02,07,6.10
2016,11,16,02,08,6.00
2016,11,16,02,09,6.00
2016,11,16,02,10,6.00
2016,11,16,02,11,5.90
2016,11,16,02,12,5.90
2016,11,16,02,13,5.80
2016,11,16,02,14,5.80
2016,11,16,02,15,5.70
2016,11,16,02,16,5.70
2016,11,16,02,17,5.70
2016,11,16,02,18,5.60
2016,11,16,02,19,5.60
2016,11,16,02,20,5.50
2016,11,16,02,21,5.40
2016,11,16,02,22,5.40
2016,11,16,02,23,5.30
2016,11,16,02,24,5.20
2016,11,16,02,25,5.20
2016,11,16,02,26,5.10
2016,11,16,02,27,5.10
2016,11,16,02,28,5.00
2016,11,16,02,29,4.90
2016,11,16,02,30,4.90
2016,11,16,02,31,4.80
2016,11,16,02,32,4.80
2016,11,16,02,33,4.80
2016,11,16,02,34,4.80
2016,11,16,02,35,4.80
2016,11,16,02,36,4.80
2016,11,16,02,37,4.80
2016,11,16,02,38,4.80
2016,11,16,02,39,4.80
2016,11,16,02,40,4.80
2016,11,16,02,41,4.80
2016,11,16,02,42,4.80
2016,11,16,02,43,4.80
2016,11,16,02,44,4.80
2016,11,16,02,45,4.70
2016,11,16,02,46,4.70
2016,11,16,02,47,4.60
2016,11,16,02,48,4.60
2016,11,16,02,49,4.50
2016,11,16,02,50,4.40
2016,11,16,02,51,4.40
2016,11,16,02,52,4.30
2016,11,16,02,53,4.30
2016,11,16,02,54,4.30
2016,11,16,02,55,4.20
2016,11,16,02,56,4.20
2016,11,16,02,57,4.20
2016,11,16,02,58,4.20
2016,11,16,02,59,4.20
2016,11,16,03,00,4.20
2016,11,16,03,01,4.20
2016,11,16,03,02,4.20
2016,11,16,03,03,4.20
2016,11,16,03,04,4.20
2016,11,16,03,05,4.20
2016,11,16,03,06,4.20
2016,11,16,03,07,4.20
2016,11,16,03,08,4.20
2016,11,16,03,09,4.20
2016,11,16,03,10,4.20
2016,11,16,03,11,4.20
2016,11,16,03,12,4.20
2016,11,16,03,13,4.10
2016,11,16,03,14,4.10
2016,11,16,03,15,4.10
2016,11,16,03,16,4.00
2016,11,16,03,17,4.00
2016,11,16,03,18,4.00
2016,11,16,03,19,4.00
2016,11,16,03,20,3.90
2016,11,16,03,21,3.90
2016,11,16,03,22,3.90
2016,11,16,03,23,3.80
2016,11,16,03,24,3.80
2016,11,16,03,25,3.80
2016,11,16,03,26,3.80
2016,11,16,03,27,3.80
2016,11,16,03,28,3.80
2016,11,16,03,29,3.90
2016,11,16,03,30,3.90
2016,11,16,03,31,4.00
2016,11,16,03,32,4.00
2016,11,16,03,33,4.00
2016,11,16,03,34,4.00
2016,11,16,03,35,4.00
2016,11,16,03,36,4.00
2016,11,16,03,37,4.00
2016,11,16,03,38,4.00
2016,11,16,03,39,4.10
2016,11,16,03,40,4.00
2016,11,16,03,41,4.00
2016,11,16,03,42,3.90
2016,11,16,03,43,3.90
2016,11,16,03,44,3.80
2016,11,16,03,45,3.80
2016,11,16,03,46,3.80
2016,11,16,03,47,3.70
2016,11,16,03,48,3.70
2016,11,16,03,49,3.70
2016,11,16,03,50,3.70
2016,11,16,03,51,3.70
2016,11,16,03,52,3.70
2016,11,16,03,53,3.70
2016,11,16,03,54,3.70
2016,11,16,03,55,3.70
2016,11,16,03,56,3.70
2016,11,16,03,57,3.70
2016,11,16,03,58,3.70
2016,11,16,03,59,3.70
2016,11,16,04,00,3.70
2016,11,16,04,01,3.80
2016,11,16,04,02,3.80
2016,11,16,04,03,3.80
2016,11,16,04,04,3.80
2016,11,16,04,05,3.90
2016,11,16,04,06,3.90
2016,11,16,04,07,3.90
2016,11,16,04,08,3.90
2016,11,16,04,09,3.90
2016,11,16,04,10,3.90
2016,11,16,04,11,3.80
2016,11,16,04,12,3.80
2016,11,16,04,13,3.80
2016,11,16,04,14,3.80
2016,11,16,04,15,3.70
2016,11,16,04,16,3.70
2016,11,16,04,17,3.70
2016,11,16,04,18,3.60
2016,11,16,04,19,3.60
2016,11,16,04,20,3.60
2016,11,16,04,21,3.50
2016,11,16,04,22,3.50
2016,11,16,04,23,3.50
2016,11,16,04,24,3.60
2016,11,16,04,25,3.60
2016,11,16,04,26,3.60
2016,11,16,04,27,3.50
2016,11,16,04,28,3.50
2016,11,16,04,29,3.50
2016,11,16,04,30,3.50
2016,11,16,04,31,3.50
2016,11,16,04,32,3.60
2016,11,16,04,33,3.60
2016,11,16,04,34,3.60
2016,11,16,04,35,3.60
2016,11,16,04,36,3.60
2016,11,16,04,37,3.50
2016,11,16,04,38,3.50
2016,11,16,04,39,3.40
2016,11,16,04,40,3.30
2016,11,16,04,41,3.30
2016,11,16,04,42,3.30
2016,11,16,04,43,3.30
2016,11,16,04,44,3.20
2016,11,16,04,45,3.20
2016,11,16,04,46,3.20
2016,11,16,04,47,3.20
2016,11,16,04,48,3.20
2016,11,16,04,49,3.30
2016,11,16,04,50,3.30
2016,11,16,04,51,3.40
2016,11,16,04,52,3.50
2016,11,16,04,53,3.60
2016,11,16,04,54,3.60
2016,11,16,04,55,3.70
2016,11,16,04,56,3.80
2016,11,16,04,57,3.80
2016,11,16,04,58,3.80
2016,11,16,04,59,3.80
2016,11,16,05,00,3.80
2016,11,16,05,01,3.90
2016,11,16,05,02,3.90
2016,11,16,05,03,4.00
2016,11,16,05,04,4.00
2016,11,16,05,05,4.00
2016,11,16,05,06,4.00
2016,11,16,05,07,4.10
2016,11,16,05,08,4.10
2016,11,16,05,09,4.20
2016,11,16,05,10,4.20
2016,11,16,05,11,4.20
2016,11,16,05,12,4.20
2016,11,16,05,13,4.20
2016,11,16,05,14,4.20
2016,11,16,05,15,4.20
2016,11,16,05,16,4.20
2016,11,16,05,17,4.20
2016,11,16,05,18,4.20
2016,11,16,05,19,4.20
2016,11,16,05,20,4.20
2016,11,16,05,21,4.20
2016,11,16,05,22,4.20
2016,11,16,05,23,4.20
2016,11,16,05,24,4.20
2016,11,16,05,25,4.20
2016,11,16,05,26,4.20
2016,11,16,05,27,4.20
2016,11,16,05,28,4.20
2016,11,16,05,29,4.20
2016,11,16,05,30,4.20
2016,11,16,05,31,4.20
2016,11,16,05,32,4.20
2016,11,16,05,33,4.20
2016,11,16,05,34,4.20
2016,11,16,05,35,4.30
2016,11,16,05,36,4.30
2016,11,16,05,37,4.30
2016,11,16,05,38,4.40
2016,11,16,05,39,4.50
2016,11,16,05,40,4.50
2016,11,16,05,41,4.60
2016,11,16,05,42,4.60
2016,11,16,05,43,4.70
2016,11,16,05,44,4.70
2016,11,16,05,45,4.80
2016,11,16,05,46,4.80
2016,11,16,05,47,4.90
2016,11,16,05,48,4.90
2016,11,16,05,49,4.90
2016,11,16,05,50,5.00
2016,11,16,05,51,5.10
2016,11,16,05,52,5.10
2016,11,16,05,53,5.10
2016,11,16,05,54,5.10
2016,11,16,05,55,5.10
2016,11,16,05,56,5.10
2016,11,16,05,57,5.10
2016,11,16,05,58,5.20
2016,11,16,05,59,5.20
2016,11,16,06,00,5.20
2016,11,16,06,01,5.20
2016,11,16,06,02,5.20
2016,11,16,06,03,5.20
2016,11,16,06,04,5.20
2016,11,16,06,05,5.20
2016,11,16,06,06,5.30
2016,11,16,06,07,5.30
2016,11,16,06,08,5.30
2016,11,16,06,09,5.30
2016,11,16,06,10,5.30
2016,11,16,06,11,5.30
2016,11,16,06,12,5.30
2016,11,16,06,13,5.20
2016,11,16,06,14,5.20
2016,11,16,06,15,5.20
2016,11,16,06,16,5.20
2016,11,16,06,17,5.20
2016,11,16,06,18,5.20
2016,11,16,06,19,5.20
2016,11,16,06,20,5.20
2016,11,16,06,21,5.20
2016,11,16,06,22,5.20
2016,11,16,06,23,5.20
2016,11,16,06,24,5.20
2016,11,16,06,25,5.20
2016,11,16,06,26,5.20
2016,11,16,06,27,5.20
2016,11,16,06,28,5.20
2016,11,16,06,29,5.20
2016,11,16,06,30,5.20
2016,11,16,06,31,5.20
2016,11,16,06,32,5.20
2016,11,16,06,33,5.20
2016,11,16,06,34,5.20
2016,11,16,06,35,5.20
2016,11,16,06,36,5.20
2016,11,16,06,37,5.20
2016,11,16,06,38,5.20
2016,11,16,06,39,5.20
2016,11,16,06,40,5.20
2016,11,16,06,41,5.30
2016,11,16,06,42,5.30
2016,11,16,06,43,5.30
2016,11,16,06,44,5.30
2016,11,16,06,45,5.30
2016,11,16,06,46,5.30
2016,11,16,06,47,5.30
2016,11,16,06,48,5.30
2016,11,16,06,49,5.30
2016,11,16,06,50,5.30
2016,11,16,06,51,5.30
2016,11,16,06,52,5.30
2016,11,16,06,53,5.30
2016,11,16,06,54,5.30
2016,11,16,06,55,5.30
2016,11,16,06,56,5.30
2016,11,16,06,57,5.30
2016,11,16,06,58,5.30
2016,11,16,06,59,5.30
2016,11,16,07,00,5.30
2016,11,16,07,01,5.30
2016,11,16,07,02,5.30
2016,11,16,07,03,5.30
2016,11,16,07,04,5.30
2016,11,16,07,05,5.30
2016,11,16,07,06,5.30
2016,11,16,07,07,5.30
2016,11,16,07,08,5.30
2016,11,16,07,09,5.30
2016,11,16,07,10,5.30
2016,11,16,07,11,5.30
2016,11,16,07,12,5.30
2016,11,16,07,13,5.30
2016,11,16,07,14,5.30
2016,11,16,07,15,5.30
2016,11,16,07,16,5.30
2016,11,16,07,17,5.30
2016,11,16,07,18,5.30
2016,11,16,07,19,5.30
2016,11,16,07,20,5.30
2016,11,16,07,21,5.30
2016,11,16,07,22,5.30
2016,11,16,07,23,5.30
2016,11,16,07,24,5.30
2016,11,16,07,25,5.30
2016,11,16,07,26,5.30
2016,11,16,07,27,5.30
2016,11,16,07,28,5.30
2016,11,16,07,29,5.30
2016,11,16,07,30,5.30
2016,11,16,07,31,5.30
2016,11,16,07,32,5.30
2016,11,16,07,33,5.30
2016,11,16,07,34,5.30
2016,11,16,07,35,5.30
2016,11,16,07,36,5.30
2016,11,16,07,37,5.30
2016,11,16,07,38,5.30
2016,11,16,07,39,5.30
2016,11,16,07,40,5.30
2016,11,16,07,41,5.30
2016,11,16,07,42,5.30
2016,11,16,07,43,5.30
2016,11,16,07,44,5.30
2016,11,16,07,45,5.30
2016,11,16,07,46,5.30
2016,11,16,07,47,5.30
2016,11,16,07,48,5.30
2016,11,16,07,49,5.30
2016,11,16,07,50,5.30
2016,11,16,07,51,5.30
2016,11,16,07,52,5.30
2016,11,16,07,53,5.30
2016,11,16,07,54,5.30
2016,11,16,07,55,5.30
2016,11,16,07,56,5.30
2016,11,16,07,57,5.30
2016,11,16,07,58,5.30
2016,11,16,07,59,5.30
2016,11,16,08,00,5.30
2016,11,16,08,01,5.30
2016,11,16,08,02,5.30
2016,11,16,08,03,5.30
2016,11,16,08,04,5.30
2016,11,16,08,05,5.30
2016,11,16,08,06,5.40
2016,11,16,08,07,5.40
2016,11,16,08,08,5.50
2016,11,16,08,09,5.50
2016,11,16,08,10,5.50
2016,11,16,08,11,5.50
2016,11,16,08,12,5.50
2016,11,16,08,13,5.60
2016,11,16,08,14,5.60
2016,11,16,08,15,5.60
2016,11,16,08,16,5.60
2016,11,16,08,17,5.70
2016,11,16,08,18,5.70
2016,11,16,08,19,5.70
2016,11,16,08,20,5.70
2016,11,16,08,21,5.70
2016,11,16,08,22,5.70
2016,11,16,08,23,5.70
2016,11,16,08,24,5.70
2016,11,16,08,25,5.70
2016,11,16,08,26,5.70
2016,11,16,08,27,5.70
2016,11,16,08,28,5.70
2016,11,16,08,29,5.80
2016,11,16,08,30,5.80
2016,11,16,08,31,5.80
2016,11,16,08,32,5.80
2016,11,16,08,33,5.90
2016,11,16,08,34,5.90
2016,11,16,08,35,5.90
2016,11,16,08,36,5.90
2016,11,16,08,37,6.00
2016,11,16,08,38,6.00
2016,11,16,08,39,6.00
2016,11,16,08,40,6.00
2016,11,16,08,41,6.00
2016,11,16,08,42,6.00
2016,11,16,08,43,6.00
2016,11,16,08,44,6.10
2016,11,16,08,45,6.10
2016,11,16,08,46,6.10
2016,11,16,08,47,6.10
2016,11,16,08,48,6.10
2016,11,16,08,49,6.10
2016,11,16,08,50,6.10
2016,11,16,08,51,6.10
2016,11,16,08,52,6.20
2016,11,16,08,53,6.20
2016,11,16,08,54,6.20
2016,11,16,08,55,6.20
2016,11,16,08,56,6.20
2016,11,16,08,57,6.20
2016,11,16,08,58,6.20
2016,11,16,08,59,6.30
2016,11,16,09,00,6.30
2016,11,16,09,01,6.30
2016,11,16,09,02,6.30
2016,11,16,09,03,6.30
2016,11,16,09,04,6.40
2016,11,16,09,05,6.40
2016,11,16,09,06,6.40
2016,11,16,09,07,6.40
2016,11,16,09,08,6.40
2016,11,16,09,09,6.40
2016,11,16,09,10,6.40
2016,11,16,09,11,6.40
2016,11,16,09,12,6.40
2016,11,16,09,13,6.40
2016,11,16,09,14,6.40
2016,11,16,09,15,6.40
2016,11,16,09,16,6.40
2016,11,16,09,17,6.40
2016,11,16,09,18,6.40
2016,11,16,09,19,6.40
2016,11,16,09,20,6.40
2016,11,16,09,21,6.40
2016,11,16,09,22,6.40
2016,11,16,09,23,6.40
2016,11,16,09,24,6.40
2016,11,16,09,25,6.40
2016,11,16,09,26,6.40
2016,11,16,09,27,6.40
2016,11,16,09,28,6.40
2016,11,16,09,29,6.50
2016,11,16,09,30,6.60
2016,11,16,09,31,6.60
2016,11,16,09,32,6.60
2016,11,16,09,33,6.60
2016,11,16,09,34,6.60
2016,11,16,09,35,6.60
2016,11,16,09,36,6.60
2016,11,16,09,37,6.60
2016,11,16,09,38,6.70
2016,11,16,09,39,6.70
2016,11,16,09,40,6.70
2016,11,16,09,41,6.70
2016,11,16,09,42,6.70
2016,11,16,09,43,6.70
2016,11,16,09,44,6.80
2016,11,16,09,45,6.80
2016,11,16,09,46,6.80
2016,11,16,09,47,6.80
2016,11,16,09,48,6.80
2016,11,16,09,49,6.80
2016,11,16,09,50,6.80
2016,11,16,09,51,6.80
2016,11,16,09,52,6.80
2016,11,16,09,53,6.80
2016,11,16,09,54,6.80
2016,11,16,09,55,6.80
2016,11,16,09,56,6.80
2016,11,16,09,57,6.80
2016,11,16,09,58,6.80
2016,11,16,09,59,6.80
2016,11,16,10,00,6.80
2016,11,16,10,01,6.80
2016,11,16,10,02,6.90
2016,11,16,10,03,6.90
2016,11,16,10,04,6.90
2016,11,16,10,05,6.90
2016,11,16,10,06,6.90
2016,11,16,10,07,7.00
2016,11,16,10,08,7.00
2016,11,16,10,09,7.00
2016,11,16,10,10,7.10
2016,11,16,10,11,7.20
2016,11,16,10,12,7.20
2016,11,16,10,13,7.30
2016,11,16,10,14,7.30
2016,11,16,10,15,7.30
2016,11,16,10,16,7.30
2016,11,16,10,17,7.30
2016,11,16,10,18,7.40
2016,11,16,10,19,7.40
2016,11,16,10,20,7.40
2016,11,16,10,21,7.40
2016,11,16,10,22,7.40
2016,11,16,10,23,7.50
2016,11,16,10,24,7.50
2016,11,16,10,25,7.50
2016,11,16,10,26,7.60
2016,11,16,10,27,7.60
2016,11,16,10,28,7.60
2016,11,16,10,29,7.70
2016,11,16,10,30,7.70
2016,11,16,10,31,7.80
2016,11,16,10,32,7.90
2016,11,16,10,33,8.00
2016,11,16,10,34,8.10
2016,11,16,10,35,8.10
2016,11,16,10,36,8.20
2016,11,16,10,37,8.30
2016,11,16,10,38,8.40
2016,11,16,10,39,8.40
2016,11,16,10,40,8.50
2016,11,16,10,41,8.50
2016,11,16,10,42,8.50
2016,11,16,10,43,8.60
2016,11,16,10,44,8.60
2016,11,16,10,45,8.70
2016,11,16,10,46,8.70
2016,11,16,10,47,8.70
2016,11,16,10,48,8.70
2016,11,16,10,49,8.70
2016,11,16,10,50,8.70
2016,11,16,10,51,8.70
2016,11,16,10,52,8.70
2016,11,16,10,53,8.70
2016,11,16,10,54,8.70
2016,11,16,10,55,8.80
2016,11,16,10,56,8.80
2016,11,16,10,57,8.80
2016,11,16,10,58,8.90
2016,11,16,10,59,8.90
2016,11,16,11,00,8.90
2016,11,16,11,01,8.90
2016,11,16,11,02,8.90
2016,11,16,11,03,8.90
2016,11,16,11,04,9.00
2016,11,16,11,05,9.00
2016,11,16,11,06,9.00
2016,11,16,11,07,9.00
2016,11,16,11,08,9.00
2016,11,16,11,09,9.10
2016,11,16,11,10,9.10
2016,11,16,11,11,9.10
2016,11,16,11,12,9.10
2016,11,16,11,13,9.20
2016,11,16,11,14,9.20
2016,11,16,11,15,9.20
2016,11,16,11,16,9.20
2016,11,16,11,17,9.20
2016,11,16,11,18,9.20
2016,11,16,11,19,9.20
2016,11,16,11,20,9.20
2016,11,16,11,21,9.20
2016,11,16,11,22,9.30
2016,11,16,11,23,9.30
2016,11,16,11,24,9.30
2016,11,16,11,25,9.30
2016,11,16,11,26,9.30
2016,11,16,11,27,9.20
2016,11,16,11,28,9.30
2016,11,16,11,29,9.30
2016,11,16,11,30,9.40
2016,11,16,11,31,9.40
2016,11,16,11,32,9.40
2016,11,16,11,33,9.40
2016,11,16,11,34,9.30
2016,11,16,11,35,9.30
2016,11,16,11,36,9.20
2016,11,16,11,37,9.20
2016,11,16,11,38,9.20
2016,11,16,11,39,9.20
2016,11,16,11,40,9.30
2016,11,16,11,41,9.30
2016,11,16,11,42,9.40
2016,11,16,11,43,9.40
2016,11,16,11,44,9.40
2016,11,16,11,45,9.50
2016,11,16,11,46,9.50
2016,11,16,11,47,9.50
2016,11,16,11,48,9.50
2016,11,16,11,49,9.40
2016,11,16,11,50,9.40
2016,11,16,11,51,9.40
2016,11,16,11,52,9.30
2016,11,16,11,53,9.30
2016,11,16,11,54,9.30
2016,11,16,11,55,9.30
2016,11,16,11,56,9.30
2016,11,16,11,57,9.20
2016,11,16,11,58,9.20
2016,11,16,11,59,9.30
2016,11,16,12,00,9.30
2016,11,16,12,01,9.20
2016,11,16,12,02,9.30
2016,11,16,12,03,9.30
2016,11,16,12,04,9.30
2016,11,16,12,05,9.30
2016,11,16,12,06,9.30
2016,11,16,12,07,9.30
2016,11,16,12,08,9.40
2016,11,16,12,09,9.40
2016,11,16,12,10,9.40
2016,11,16,12,11,9.40
2016,11,16,12,12,9.30
2016,11,16,12,13,9.30
2016,11,16,12,14,9.30
2016,11,16,12,15,9.30
2016,11,16,12,16,9.30
2016,11,16,12,17,9.30
2016,11,16,12,18,9.40
2016,11,16,12,19,9.40
2016,11,16,12,20,9.40
2016,11,16,12,21,9.40
2016,11,16,12,22,9.40
2016,11,16,12,23,9.40
2016,11,16,12,24,9.40
2016,11,16,12,25,9.40
2016,11,16,12,26,9.40
2016,11,16,12,27,9.30
2016,11,16,12,28,9.30
2016,11,16,12,29,9.30
2016,11,16,12,30,9.30
2016,11,16,12,31,9.30
2016,11,16,12,32,9.30
2016,11,16,12,33,9.20
2016,11,16,12,34,9.20
2016,11,16,12,35,9.20
2016,11,16,12,36,9.20
2016,11,16,12,37,9.20
2016,11,16,12,38,9.20
2016,11,16,12,39,9.20
2016,11,16,12,40,9.20
2016,11,16,12,41,9.20
2016,11,16,12,42,9.20
2016,11,16,12,43,9.20
2016,11,16,12,44,9.10
2016,11,16,12,45,9.10
2016,11,16,12,46,9.20
2016,11,16,12,47,9.20
2016,11,16,12,48,9.20
2016,11,16,12,49,9.20
2016,11,16,12,50,9.20
2016,11,16,12,51,9.10
2016,11,16,12,52,9.10
2016,11,16,12,53,9.10
2016,11,16,12,54,9.10
2016,11,16,12,55,9.10
2016,11,16,12,56,9.10
2016,11,16,12,57,9.10
2016,11,16,12,58,9.00
2016,11,16,12,59,9.00
2016,11,16,13,00,9.00
2016,11,16,13,01,9.00
2016,11,16,13,02,9.00
2016,11,16,13,03,9.00
2016,11,16,13,04,8.90
2016,11,16,13,05,8.90
2016,11,16,13,06,8.90
2016,11,16,13,07,8.90
2016,11,16,13,08,8.80
2016,11,16,13,09,8.80
2016,11,16,13,10,8.80
2016,11,16,13,11,8.80
2016,11,16,13,12,8.70
2016,11,16,13,13,8.70
2016,11,16,13,14,8.70
2016,11,16,13,15,8.70
2016,11,16,13,16,8.70
2016,11,16,13,17,8.70
2016,11,16,13,18,8.70
2016,11,16,13,19,8.70
2016,11,16,13,20,8.60
2016,11,16,13,21,8.60
2016,11,16,13,22,8.60
2016,11,16,13,23,8.60
2016,11,16,13,24,8.60
2016,11,16,13,25,8.60
2016,11,16,13,26,8.60
2016,11,16,13,27,8.60
2016,11,16,13,28,8.60
2016,11,16,13,29,8.60
2016,11,16,13,30,8.60
2016,11,16,13,31,8.60
2016,11,16,13,32,8.60
2016,11,16,13,33,8.60
2016,11,16,13,34,8.60
2016,11,16,13,35,8.60
2016,11,16,13,36,8.60
2016,11,16,13,37,8.60
2016,11,16,13,38,8.60
2016,11,16,13,39,8.60
2016,11,16,13,40,8.60
2016,11,16,13,41,8.70
2016,11,16,13,42,8.70
2016,11,16,13,43,8.70
2016,11,16,13,44,8.70
2016,11,16,13,45,8.70
2016,11,16,13,46,8.70
2016,11,16,13,47,8.70
2016,11,16,13,48,8.70
2016,11,16,13,49,8.70
2016,11,16,13,50,8.60
2016,11,16,13,51,8.60
2016,11,16,13,52,8.60
2016,11,16,13,53,8.60
2016,11,16,13,54,8.50
2016,11,16,13,55,8.50
2016,11,16,13,56,8.50
2016,11,16,13,57,8.50
2016,11,16,13,58,8.50
2016,11,16,13,59,8.50
2016,11,16,14,00,8.50
2016,11,16,14,01,8.40
2016,11,16,14,02,8.40
2016,11,16,14,03,8.40
2016,11,16,14,04,8.40
2016,11,16,14,05,8.40
2016,11,16,14,06,8.30
2016,11,16,14,07,8.30
2016,11,16,14,08,8.30
2016,11,16,14,09,8.30
2016,11,16,14,10,8.30
2016,11,16,14,11,8.30
2016,11,16,14,12,8.30
2016,11,16,14,13,8.30
2016,11,16,14,14,8.30
2016,11,16,14,15,8.30
2016,11,16,14,16,8.30
2016,11,16,14,17,8.30
2016,11,16,14,18,8.30
2016,11,16,14,19,8.30
2016,11,16,14,20,8.30
2016,11,16,14,21,8.30
2016,11,16,14,22,8.30
2016,11,16,14,23,8.30
2016,11,16,14,24,8.20
2016,11,16,14,25,8.20
2016,11,16,14,26,8.20
2016,11,16,14,27,8.20
2016,11,16,14,28,8.20
2016,11,16,14,29,8.20
2016,11,16,14,30,8.20
2016,11,16,14,31,8.20
2016,11,16,14,32,8.30
2016,11,16,14,33,8.30
2016,11,16,14,34,8.40
2016,11,16,14,35,8.50
2016,11,16,14,36,8.50
2016,11,16,14,37,8.60
2016,11,16,14,38,8.70
2016,11,16,14,39,8.70
2016,11,16,14,40,8.80
2016,11,16,14,41,8.90
2016,11,16,14,42,9.00
2016,11,16,14,43,9.00
2016,11,16,14,44,9.00
2016,11,16,14,45,9.00
2016,11,16,14,46,9.00
2016,11,16,14,47,9.00
2016,11,16,14,48,9.00
2016,11,16,14,49,9.00
2016,11,16,14,50,9.00
2016,11,16,14,51,9.00
2016,11,16,14,52,9.00
2016,11,16,14,53,8.90
2016,11,16,14,54,8.90
2016,11,16,14,55,8.90
2016,11,16,14,56,8.90
2016,11,16,14,57,8.90
2016,11,16,14,58,8.90
2016,11,16,14,59,8.90
2016,11,16,15,00,8.90
2016,11,16,15,01,8.90
2016,11,16,15,02,8.90
2016,11,16,15,03,8.90
2016,11,16,15,04,8.90
2016,11,16,15,05,8.90
2016,11,16,15,06,8.90
2016,11,16,15,07,8.90
2016,11,16,15,08,8.90
2016,11,16,15,09,8.90
2016,11,16,15,10,8.90
2016,11,16,15,11,8.90
2016,11,16,15,12,8.90
2016,11,16,15,13,8.90
2016,11,16,15,14,8.80
2016,11,16,15,15,8.80
2016,11,16,15,16,8.80
2016,11,16,15,17,8.80
2016,11,16,15,18,8.80
2016,11,16,15,19,8.80
2016,11,16,15,20,8.80
2016,11,16,15,21,8.80
2016,11,16,15,22,8.80
2016,11,16,15,23,8.80
2016,11,16,15,24,8.80
2016,11,16,15,25,8.80
2016,11,16,15,26,8.80
2016,11,16,15,27,8.80
2016,11,16,15,28,8.80
2016,11,16,15,29,8.80
2016,11,16,15,30,8.80
2016,11,16,15,31,8.80
2016,11,16,15,32,8.80
2016,11,16,15,33,8.80
2016,11,16,15,34,8.80
2016,11,16,15,35,8.80
2016,11,16,15,36,8.80
2016,11,16,15,37,8.80
2016,11,16,15,38,8.80
2016,11,16,15,39,8.70
2016,11,16,15,40,8.50
2016,11,16,15,41,8.40
2016,11,16,15,42,8.20
2016,11,16,15,43,8.10
2016,11,16,15,44,7.90
2016,11,16,15,45,7.80
2016,11,16,15,46,7.70
2016,11,16,15,47,7.50
2016,11,16,15,48,7.40
2016,11,16,15,49,7.30
2016,11,16,15,50,7.20
2016,11,16,15,51,7.10
2016,11,16,15,52,6.90
2016,11,16,15,53,6.80
2016,11,16,15,54,6.70
2016,11,16,15,55,6.60
2016,11,16,15,56,6.50
2016,11,16,15,57,6.40
2016,11,16,15,58,6.30
2016,11,16,15,59,6.20
2016,11,16,16,00,6.20
2016,11,16,16,01,6.10
2016,11,16,16,02,6.10
2016,11,16,16,03,6.00
2016,11,16,16,04,6.00
2016,11,16,16,05,6.00
2016,11,16,16,06,5.90
2016,11,16,16,07,5.90
2016,11,16,16,08,5.90
2016,11,16,16,09,5.90
2016,11,16,16,10,5.80
2016,11,16,16,11,5.80
2016,11,16,16,12,5.90
2016,11,16,16,13,5.90
2016,11,16,16,14,5.90
2016,11,16,16,15,5.90
2016,11,16,16,16,5.90
2016,11,16,16,17,5.90
2016,11,16,16,18,5.90
2016,11,16,16,19,5.90
2016,11,16,16,20,6.00
2016,11,16,16,21,5.90
2016,11,16,16,22,6.00
2016,11,16,16,23,6.00
2016,11,16,16,24,6.00
2016,11,16,16,25,6.00
2016,11,16,16,26,6.00
2016,11,16,16,27,6.00
2016,11,16,16,28,6.00
2016,11,16,16,29,6.00
2016,11,16,16,30,6.10
2016,11,16,16,31,6.10
2016,11,16,16,32,6.10
2016,11,16,16,33,6.10
2016,11,16,16,34,6.10
2016,11,16,16,35,6.10
2016,11,16,16,36,6.10
2016,11,16,16,37,6.10
2016,11,16,16,38,6.10
2016,11,16,16,39,6.10
2016,11,16,16,40,6.10
2016,11,16,16,41,6.10
2016,11,16,16,42,6.10
2016,11,16,16,43,6.00
2016,11,16,16,44,6.00
2016,11,16,16,45,6.00
2016,11,16,16,46,6.00
2016,11,16,16,47,6.00
2016,11,16,16,48,6.00
2016,11,16,16,49,6.00
2016,11,16,16,50,6.00
2016,11,16,16,51,5.90
2016,11,16,16,52,5.90
2016,11,16,16,53,5.90
2016,11,16,16,54,5.90
2016,11,16,16,55,5.90
2016,11,16,16,56,5.90
2016,11,16,16,57,5.90
2016,11,16,16,58,5.90
2016,11,16,16,59,5.90
2016,11,16,17,00,5.90
2016,11,16,17,01,5.90
2016,11,16,17,02,5.90
2016,11,16,17,03,5.90
2016,11,16,17,04,5.90
2016,11,16,17,05,5.90
2016,11,16,17,06,5.90
2016,11,16,17,07,5.90
2016,11,16,17,08,5.90
2016,11,16,17,09,5.90
2016,11,16,17,10,5.90
2016,11,16,17,11,5.90
2016,11,16,17,12,5.90
2016,11,16,17,13,5.90
2016,11,16,17,14,5.90
2016,11,16,17,15,5.90
2016,11,16,17,16,5.90
2016,11,16,17,17,5.90
2016,11,16,17,18,5.90
2016,11,16,17,19,5.90
2016,11,16,17,20,5.90
2016,11,16,17,21,5.80
2016,11,16,17,22,5.80
2016,11,16,17,23,5.80
2016,11,16,17,24,5.80
2016,11,16,17,25,5.80
2016,11,16,17,26,5.80
2016,11,16,17,27,5.90
2016,11,16,17,28,5.90
2016,11,16,17,29,5.80
2016,11,16,17,30,5.80
2016,11,16,17,31,5.80
2016,11,16,17,32,5.80
2016,11,16,17,33,5.80
2016,11,16,17,34,5.80
2016,11,16,17,35,5.80
2016,11,16,17,36,5.80
2016,11,16,17,37,5.80
2016,11,16,17,38,5.80
2016,11,16,17,39,5.80
2016,11,16,17,40,5.80
2016,11,16,17,41,5.80
2016,11,16,17,42,5.90
2016,11,16,17,43,5.90
2016,11,16,17,44,5.90
2016,11,16,17,45,5.90
2016,11,16,17,46,5.90
2016,11,16,17,47,5.90
2016,11,16,17,48,5.90
2016,11,16,17,49,5.80
2016,11,16,17,50,5.80
2016,11,16,17,51,5.80
2016,11,16,17,52,5.80
2016,11,16,17,53,5.80
2016,11,16,17,54,5.80
2016,11,16,17,55,5.80
2016,11,16,17,56,5.80
2016,11,16,17,57,5.80
2016,11,16,17,58,5.90
2016,11,16,17,59,5.90
2016,11,16,18,00,5.90
2016,11,16,18,01,5.90
2016,11,16,18,02,5.90
2016,11,16,18,03,5.90
2016,11,16,18,04,5.90
2016,11,16,18,05,5.90
2016,11,16,18,06,5.90